QPF
0.09 0.10 0.11 0.12 0.08 0.05 0.05 0.04 0.03 0.06 0.06 0.04 0.04 0.02 0.03 0.05 0.06 0.04 0.02 0.01 0.00 0.00 0.01 0.01 0.01 0.01 0.01 0.02 0.02 0.01 0.03 0.01 0.01 0.00 0.01 0.00 0.00 0.00 0.01 0.01 0.00 0.00 0.01
0.09 0.09 0.08 0.07 0.07 0.05 0.04 0.03 0.03 0.04 0.04 0.04 0.05 0.03 0.03 0.04 0.04 0.04 0.03 0.01 0.00 0.01 0.01 0.01 0.01 0.01 0.01 0.01 0.02 0.01 0.02 0.02 0.02 0.01 0.01 0.00 0.00 0.00 0.00 0.01 0.01 0.01 0.01
0.09 0.08 0.07 0.07 0.06 0.05 0.04 0.03 0.04 0.03 0.03 0.03 0.03 0.03 0.04 0.05 0.03 0.04 0.07 0.04 0.01 0.01 0.01 0.01 0.01 0.02 0.02 0.01 0.01 0.01 0.01 0.01 0.02 0.01 0.01 0.00 0.00 0.00 0.00 0.00 0.01 0.01 0.00
0.04 0.06 0.06 0.05 0.04 0.03 0.03 0.02 0.02 0.02 0.03 0.03 0.04 0.05 0.05 0.04 0.03 0.03 0.04 0.05 0.04 0.02 0.01 0.01 0.01 0.01 0.02 0.01 0.01 0.02 0.03 0.02 0.01 0.01 0.00 0.00 0.00 0.00 0.00 0.00 0.00 0.00 0.00
0.03 0.04 0.06 0.06 0.02 0.02 0.02 0.02 0.02 0.02 0.05 0.05 0.03 0.04 0.03 0.02 0.02 0.02 0.03 0.02 0.04 0.04 0.03 0.02 0.01 0.01 0.02 0.03 0.04 0.04 0.03 0.02 0.01 0.01 0.01 0.01 0.01 0.01 0.01 0.00 0.00 0.00 0.00
0.04 0.04 0.04 0.03 0.02 0.03 0.04 0.03 0.05 0.04 0.06 0.05 0.03 0.04 0.03 0.03 0.02 0.02 0.02 0.03 0.04 0.02 0.02 0.03 0.02 0.01 0.01 0.02 0.04 0.04 0.03 0.02 0.01 0.01 0.02 0.02 0.02 0.02 0.01 0.01 0.01 0.00 0.00
0.03 0.04 0.05 0.05 0.02 0.04 0.04 0.04 0.04 0.05 0.05 0.03 0.06 0.07 0.06 0.04 0.03 0.02 0.02 0.03 0.03 0.03 0.04 0.05 0.04 0.04 0.03 0.01 0.01 0.01 0.01 0.02 0.02 0.02 0.02 0.02 0.04 0.03 0.03 0.02 0.01 0.01 0.01
0.04 0.02 0.05 0.04 0.03 0.05 0.04 0.05 0.06 0.06 0.05 0.03 0.04 0.09 0.10 0.09 0.06 0.02 0.02 0.03 0.03 0.03 0.02 0.03 0.03 0.05 0.04 0.03 0.01 0.00 0.01 0.02 0.02 0.03 0.03 0.03 0.03 0.03 0.02 0.02 0.01 0.01 0.01
0.04 0.04 0.04 0.03 0.04 0.03 0.04 0.04 0.05 0.06 0.07 0.05 0.03 0.05 0.08 0.10 0.08 0.04 0.01 0.01 0.02 0.02 0.02 0.02 0.01 0.01 0.02 0.04 0.04 0.02 0.01 0.01 0.02 0.03 0.03 0.03 0.02 0.02 0.02 0.02 0.02 0.01 0.01
0.05 0.05 0.04 0.03 0.03 0.03 0.05 0.03 0.03 0.04 0.06 0.07 0.04 0.01 0.02 0.04 0.07 0.09 0.06 0.01 0.02 0.01 0.01 0.01 0.01 0.01 0.01 0.02 0.03 0.01 0.01 0.01 0.01 0.02 0.03 0.04 0.03 0.02 0.02 0.02 0.03 0.03 0.03
0.07 0.05 0.04 0.04 0.03 0.03 0.05 0.03 0.05 0.04 0.04 0.05 0.03 0.02 0.02 0.03 0.03 0.05 0.08 0.06 0.05 0.01 0.01 0.00 0.00 0.00 0.00 0.01 0.01 0.01 0.00 0.00 0.00 0.01 0.02 0.02 0.02 0.02 0.02 0.02 0.03 0.04 0.04
0.09 0.07 0.06 0.05 0.04 0.04 0.05 0.05 0.07 0.04 0.04 0.04 0.03 0.02 0.02 0.03 0.04 0.04 0.05 0.05 0.04 0.01 0.01 0.01 0.01 0.01 0.00 0.00 0.00 0.01 0.00 0.00 0.00 0.00 0.00 0.00 0.01 0.01 0.01 0.02 0.03 0.03 0.04
0.08 0.08 0.08 0.07 0.06 0.05 0.05 0.07 0.07 0.07 0.05 0.05 0.03 0.02 0.01 0.01 0.01 0.02 0.03 0.03 0.03 0.02 0.01 0.00 0.00 0.00 0.00 0.01 0.01 0.01 0.00 0.01 0.00 0.00 0.00 0.00 0.00 0.00 0.01 0.01 0.02 0.02 0.02
0.08 0.07 0.07 0.07 0.07 0.07 0.05 0.07 0.07 0.07 0.06 0.05 0.03 0.03 0.02 0.01 0.01 0.02 0.02 0.03 0.04 0.03 0.02 0.01 0.01 0.00 0.00 0.01 0.01 0.02 0.02 0.01 0.00 0.00 0.00 0.00 0.00 0.00 0.00 0.00 0.00 0.01 0.01
0.07 0.09 0.07 0.08 0.09 0.08 0.08 0.08 0.08 0.07 0.06 0.04 0.03 0.03 0.02 0.02 0.01 0.01 0.01 0.02 0.03 0.04 0.05 0.04 0.03 0.02 0.01 0.01 0.02 0.03 0.02 0.01 0.00 0.00 0.00 0.00 0.00 0.00 0.00 0.00 0.00 0.00 0.00
0.09 0.12 0.11 0.10 0.10 0.11 0.11 0.11 0.09 0.08 0.07 0.05 0.04 0.04 0.03 0.03 0.03 0.02 0.02 0.02 0.02 0.04 0.05 0.05 0.04 0.03 0.02 0.02 0.03 0.03 0.02 0.02 0.01 0.00 0.00 0.00 0.00 0.00 0.00 0.00 0.00 0.00 0.00
0.10 0.12 0.13 0.13 0.12 0.13 0.14 0.12 0.10 0.10 0.09 0.08 0.06 0.05 0.05 0.05 0.05 0.05 0.05 0.04 0.04 0.06 0.06 0.05 0.06 0.05 0.05 0.05 0.06 0.05 0.05 0.05 0.05 0.05 0.02 0.01 0.00 0.00 0.00 0.00 0.00 0.00 0.00
0.11 0.11 0.12 0.13 0.14 0.15 0.17 0.13 0.09 0.09 0.09 0.08 0.06 0.07 0.06 0.06 0.07 0.06 0.06 0.05 0.05 0.07 0.08 0.09 0.10 0.11 0.11 0.09 0.09 0.06 0.04 0.04 0.05 0.08 0.05 0.02 0.01 0.00 0.00 0.00 0.00 0.00 0.00
0.11 0.11 0.13 0.14 0.14 0.15 0.14 0.14 0.12 0.12 0.10 0.08 0.08 0.07 0.07 0.08 0.08 0.08 0.07 0.06 0.07 0.06 0.08 0.11 0.11 0.10 0.09 0.07 0.07 0.06 0.04 0.06 0.04 0.05 0.04 0.03 0.02 0.01 0.01 0.01 0.00 0.01 0.00
0.13 0.14 0.16 0.16 0.16 0.16 0.14 0.13 0.13 0.13 0.14 0.14 0.13 0.12 0.11 0.11 0.10 0.10 0.09 0.09 0.08 0.09 0.10 0.12 0.11 0.11 0.09 0.08 0.08 0.07 0.07 0.08 0.05 0.04 0.04 0.04 0.04 0.04 0.03 0.02 0.01 0.01 0.01
0.12 0.13 0.15 0.16 0.15 0.15 0.13 0.13 0.13 0.14 0.18 0.17 0.15 0.14 0.11 0.09 0.08 0.07 0.05 0.07 0.08 0.10 0.11 0.12 0.11 0.08 0.07 0.07 0.07 0.06 0.06 0.07 0.05 0.03 0.04 0.05 0.06 0.06 0.07 0.05 0.03 0.02 0.02
0.11 0.13 0.14 0.14 0.13 0.10 0.11 0.12 0.14 0.15 0.14 0.12 0.11 0.10 0.07 0.05 0.04 0.03 0.03 0.03 0.05 0.07 0.08 0.09 0.08 0.07 0.05 0.04 0.04 0.05 0.05 0.06 0.06 0.04 0.03 0.03 0.04 0.05 0.05 0.04 0.03 0.02 0.02
0.10 0.10 0.11 0.12 0.12 0.12 0.14 0.13 0.14 0.15 0.14 0.12 0.12 0.10 0.07 0.05 0.05 0.04 0.03 0.03 0.03 0.04 0.05 0.06 0.07 0.06 0.05 0.05 0.05 0.05 0.05 0.05 0.04 0.04 0.03 0.04 0.04 0.05 0.04 0.03 0.02 0.02 0.01
0.07 0.08 0.09 0.09 0.09 0.11 0.14 0.13 0.13 0.11 0.12 0.11 0.11 0.10 0.09 0.09 0.08 0.07 0.06 0.05 0.04 0.03 0.03 0.04 0.03 0.03 0.03 0.03 0.02 0.02 0.02 0.02 0.02 0.02 0.02 0.02 0.02 0.02 0.02 0.02 0.01 0.01 0.01
0.08 0.08 0.08 0.07 0.07 0.08 0.10 0.10 0.10 0.09 0.10 0.11 0.11 0.10 0.11 0.11 0.11 0.09 0.07 0.06 0.05 0.05 0.05 0.05 0.04 0.04 0.03 0.03 0.02 0.02 0.02 0.02 0.02 0.02 0.01 0.01 0.01 0.01 0.01 0.01 0.01 0.01 0.01
0.05 0.05 0.05 0.05 0.06 0.06 0.07 0.07 0.07 0.06 0.08 0.10 0.11 0.11 0.12 0.11 0.11 0.09 0.07 0.07 0.06 0.06 0.05 0.04 0.04 0.03 0.02 0.01 0.01 0.01 0.01 0.01 0.01 0.01 0.01 0.01 0.01 0.01 0.01 0.01 0.01 0.01 0.01
MSLP
1015.43 1015.69 1015.86 1015.98 1016.09 1016.19 1016.32 1016.47 1016.62 1016.75 1016.85 1016.91 1016.96 1017.02 1017.14 1017.35 1017.68 1018.12 1018.65 1019.22 1019.80 1020.33 1020.78 1021.14 1021.40 1021.59 1021.74 1021.87 1022.00 1022.14 1022.30 1022.47 1022.63 1022.79 1022.93 1023.06 1023.18 1023.31 1023.43 1023.55 1023.66 1023.75 1023.81
1015.29 1015.57 1015.76 1015.90 1016.00 1016.10 1016.22 1016.37 1016.53 1016.70 1016.85 1016.99 1017.11 1017.23 1017.40 1017.62 1017.91 1018.29 1018.75 1019.24 1019.75 1020.24 1020.68 1021.06 1021.36 1021.61 1021.81 1021.98 1022.13 1022.27 1022.41 1022.54 1022.67 1022.79 1022.91 1023.03 1023.16 1023.30 1023.44 1023.57 1023.70 1023.79 1023.87
1015.13 1015.45 1015.68 1015.84 1015.97 1016.10 1016.24 1016.40 1016.59 1016.79 1016.99 1017.19 1017.37 1017.54 1017.72 1017.93 1018.18 1018.49 1018.84 1019.23 1019.65 1020.08 1020.49 1020.87 1021.21 1021.50 1021.75 1021.97 1022.15 1022.30 1022.43 1022.54 1022.63 1022.73 1022.83 1022.95 1023.08 1023.23 1023.38 1023.53 1023.67 1023.78 1023.87
1014.96 1015.31 1015.59 1015.81 1016.00 1016.17 1016.34 1016.54 1016.76 1017.00 1017.24 1017.48 1017.70 1017.90 1018.09 1018.27 1018.46 1018.67 1018.92 1019.20 1019.51 1019.86 1020.21 1020.58 1020.93 1021.26 1021.56 1021.81 1022.03 1022.20 1022.33 1022.44 1022.52 1022.61 1022.70 1022.81 1022.94 1023.09 1023.26 1023.42 1023.57 1023.70 1023.80
1014.76 1015.14 1015.48 1015.78 1016.03 1016.27 1016.50 1016.74 1016.99 1017.26 1017.53 1017.80 1018.04 1018.25 1018.43 1018.58 1018.71 1018.84 1018.98 1019.15 1019.36 1019.61 1019.90 1020.22 1020.56 1020.90 1021.23 1021.52 1021.77 1021.97 1022.12 1022.24 1022.33 1022.42 1022.51 1022.62 1022.75 1022.90 1023.07 1023.23 1023.39 1023.53 1023.64
1014.54 1014.95 1015.34 1015.71 1016.04 1016.35 1016.64 1016.93 1017.21 1017.51 1017.80 1018.08 1018.33 1018.55 1018.72 1018.85 1018.94 1019.00 1019.05 1019.12 1019.22 1019.38 1019.59 1019.85 1020.15 1020.48 1020.81 1021.12 1021.39 1021.62 1021.81 1021.95 1022.07 1022.17 1022.27 1022.39 1022.52 1022.67 1022.82 1022.98 1023.13 1023.27 1023.39
1014.32 1014.74 1015.17 1015.60 1016.00 1016.38 1016.72 1017.05 1017.36 1017.67 1017.97 1018.26 1018.53 1018.76 1018.94 1019.06 1019.13 1019.15 1019.14 1019.14 1019.15 1019.21 1019.34 1019.52 1019.76 1020.05 1020.35 1020.66 1020.94 1021.20 1021.41 1021.59 1021.74 1021.88 1022.01 1022.13 1022.27 1022.40 1022.54 1022.68 1022.81 1022.93 1023.04
1014.11 1014.53 1014.98 1015.45 1015.90 1016.32 1016.71 1017.07 1017.40 1017.71 1018.03 1018.33 1018.61 1018.87 1019.07 1019.22 1019.30 1019.31 1019.28 1019.22 1019.17 1019.15 1019.18 1019.27 1019.43 1019.65 1019.90 1020.18 1020.46 1020.73 1020.97 1021.19 1021.39 1021.56 1021.72 1021.87 1022.00 1022.12 1022.24 1022.34 1022.44 1022.53 1022.62
1013.95 1014.34 1014.80 1015.28 1015.75 1016.20 1016.61 1016.97 1017.31 1017.63 1017.95 1018.27 1018.58 1018.87 1019.12 1019.31 1019.43 1019.47 1019.44 1019.37 1019.27 1019.18 1019.13 1019.12 1019.19 1019.31 1019.50 1019.73 1019.98 1020.25 1020.52 1020.78 1021.02 1021.24 1021.43 1021.60 1021.74 1021.85 1021.93 1021.99 1022.05 1022.10 1022.17
1013.83 1014.19 1014.63 1015.10 1015.57 1016.01 1016.42 1016.78 1017.12 1017.44 1017.77 1018.10 1018.44 1018.78 1019.08 1019.33 1019.51 1019.60 1019.60 1019.53 1019.41 1019.28 1019.15 1019.06 1019.02 1019.06 1019.16 1019.32 1019.54 1019.79 1020.07 1020.36 1020.64 1020.91 1021.14 1021.33 1021.48 1021.58 1021.64 1021.66 1021.68 1021.69 1021.71
1013.73 1014.06 1014.47 1014.91 1015.36 1015.79 1016.17 1016.53 1016.85 1017.17 1017.50 1017.85 1018.22 1018.60 1018.96 1019.28 1019.52 1019.66 1019.70 1019.65 1019.53 1019.37 1019.19 1019.03 1018.91 1018.86 1018.88 1018.98 1019.15 1019.38 1019.65 1019.96 1020.27 1020.58 1020.84 1021.06 1021.23 1021.33 1021.37 1021.37 1021.34 1021.31 1021.30
1013.62 1013.92 1014.30 1014.71 1015.13 1015.52 1015.89 1016.22 1016.53 1016.84 1017.17 1017.54 1017.93 1018.35 1018.75 1019.11 1019.41 1019.60 1019.69 1019.67 1019.56 1019.39 1019.18 1018.98 1018.80 1018.69 1018.65 1018.69 1018.81 1019.01 1019.27 1019.59 1019.92 1020.25 1020.55 1020.80 1020.98 1021.09 1021.13 1021.12 1021.07 1021.02 1020.97
1013.43 1013.72 1014.07 1014.46 1014.85 1015.22 1015.57 1015.88 1016.18 1016.49 1016.82 1017.19 1017.60 1018.03 1018.45 1018.84 1019.17 1019.39 1019.52 1019.53 1019.45 1019.29 1019.09 1018.88 1018.68 1018.54 1018.45 1018.45 1018.54 1018.71 1018.95 1019.25 1019.59 1019.93 1020.26 1020.53 1020.74 1020.88 1020.94 1020.94 1020.89 1020.83 1020.77
1013.12 1013.42 1013.77 1014.14 1014.52 1014.88 1015.21 1015.52 1015.82 1016.13 1016.47 1016.84 1017.24 1017.66 1018.09 1018.48 1018.81 1019.05 1019.19 1019.24 1019.19 1019.08 1018.91 1018.73 1018.55 1018.41 1018.32 1018.30 1018.36 1018.50 1018.72 1018.99 1019.32 1019.66 1019.99 1020.29 1020.52 1020.69 1020.79 1020.82 1020.80 1020.75 1020.70
1012.66 1012.98 1013.35 1013.73 1014.11 1014.48 1014.82 1015.15 1015.46 1015.79 1016.13 1016.50 1016.89 1017.30 1017.70 1018.06 1018.38 1018.61 1018.77 1018.84 1018.84 1018.78 1018.68 1018.56 1018.45 1018.35 1018.28 1018.27 1018.32 1018.43 1018.61 1018.85 1019.13 1019.45 1019.78 1020.08 1020.34 1020.55 1020.69 1020.77 1020.79 1020.78 1020.76
1012.08 1012.44 1012.83 1013.24 1013.64 1014.04 1014.41 1014.77 1015.12 1015.48 1015.84 1016.22 1016.61 1016.99 1017.35 1017.68 1017.96 1018.18 1018.33 1018.43 1018.49 1018.50 1018.49 1018.46 1018.43 1018.41 1018.39 1018.41 1018.45 1018.54 1018.67 1018.86 1019.09 1019.36 1019.65 1019.95 1020.22 1020.46 1020.65 1020.78 1020.86 1020.91 1020.92
1011.42 1011.82 1012.25 1012.69 1013.14 1013.57 1014.00 1014.41 1014.82 1015.23 1015.64 1016.04 1016.43 1016.79 1017.13 1017.42 1017.66 1017.86 1018.02 1018.14 1018.25 1018.34 1018.43 1018.51 1018.59 1018.66 1018.71 1018.76 1018.81 1018.87 1018.95 1019.07 1019.23 1019.43 1019.67 1019.93 1020.19 1020.44 1020.67 1020.85 1020.99 1021.09 1021.15
1010.81 1011.24 1011.69 1012.17 1012.65 1013.14 1013.62 1014.11 1014.59 1015.07 1015.53 1015.98 1016.39 1016.76 1017.09 1017.36 1017.58 1017.76 1017.92 1018.07 1018.23 1018.41 1018.59 1018.78 1018.97 1019.13 1019.26 1019.35 1019.40 1019.44 1019.46 1019.50 1019.57 1019.68 1019.84 1020.04 1020.27 1020.51 1020.75 1020.96 1021.14 1021.29 1021.39
1010.33 1010.77 1011.24 1011.74 1012.25 1012.78 1013.33 1013.88 1014.45 1015.01 1015.55 1016.07 1016.53 1016.94 1017.27 1017.54 1017.76 1017.94 1018.11 1018.30 1018.50 1018.75 1019.02 1019.31 1019.58 1019.83 1020.02 1020.14 1020.20 1020.20 1020.17 1020.12 1020.09 1020.11 1020.17 1020.29 1020.46 1020.66 1020.88 1021.10 1021.29 1021.46 1021.58
1010.09 1010.52 1010.98 1011.48 1012.01 1012.57 1013.16 1013.78 1014.42 1015.08 1015.71 1016.31 1016.85 1017.32 1017.70 1018.00 1018.23 1018.43 1018.62 1018.82 1019.07 1019.37 1019.70 1020.05 1020.40 1020.70 1020.94 1021.08 1021.14 1021.11 1021.02 1020.89 1020.77 1020.68 1020.64 1020.67 1020.76 1020.90 1021.07 1021.25 1021.43 1021.57 1021.68
1010.13 1010.54 1010.98 1011.46 1011.98 1012.55 1013.17 1013.84 1014.55 1015.29 1016.02 1016.71 1017.34 1017.88 1018.33 1018.68 1018.95 1019.18 1019.39 1019.62 1019.88 1020.20 1020.56 1020.95 1021.33 1021.66 1021.92 1022.07 1022.12 1022.06 1021.92 1021.73 1021.53 1021.35 1021.22 1021.15 1021.14 1021.20 1021.30 1021.41 1021.53 1021.63 1021.69
1010.50 1010.86 1011.27 1011.71 1012.20 1012.76 1013.39 1014.09 1014.86 1015.66 1016.47 1017.26 1017.98 1018.61 1019.13 1019.54 1019.86 1020.12 1020.35 1020.58 1020.85 1021.16 1021.51 1021.89 1022.27 1022.60 1022.85 1023.00 1023.03 1022.96 1022.79 1022.56 1022.30 1022.05 1021.83 1021.68 1021.58 1021.55 1021.55 1021.58 1021.61 1021.63 1021.61
1011.15 1011.48 1011.84 1012.24 1012.70 1013.24 1013.86 1014.57 1015.36 1016.22 1017.09 1017.95 1018.75 1019.45 1020.04 1020.51 1020.87 1021.15 1021.38 1021.60 1021.84 1022.12 1022.44 1022.77 1023.11 1023.40 1023.63 1023.76 1023.78 1023.70 1023.52 1023.27 1022.99 1022.70 1022.44 1022.21 1022.04 1021.92 1021.83 1021.76 1021.69 1021.60 1021.49
1012.04 1012.35 1012.69 1013.06 1013.48 1013.99 1014.59 1015.30 1016.10 1016.97 1017.87 1018.77 1019.62 1020.37 1021.00 1021.51 1021.89 1022.17 1022.39 1022.58 1022.77 1022.99 1023.23 1023.50 1023.76 1024.00 1024.19 1024.29 1024.30 1024.22 1024.05 1023.81 1023.53 1023.24 1022.96 1022.71 1022.48 1022.28 1022.11 1021.94 1021.77 1021.58 1021.37
1013.11 1013.42 1013.75 1014.11 1014.52 1015.01 1015.59 1016.28 1017.06 1017.92 1018.82 1019.72 1020.56 1021.32 1021.96 1022.46 1022.84 1023.10 1023.29 1023.42 1023.55 1023.68 1023.84 1024.02 1024.20 1024.37 1024.50 1024.57 1024.57 1024.49 1024.35 1024.15 1023.90 1023.64 1023.37 1023.11 1022.86 1022.61 1022.37 1022.13 1021.87 1021.59 1021.29
1014.27 1014.63 1014.99 1015.36 1015.78 1016.26 1016.83 1017.48 1018.23 1019.05 1019.90 1020.75 1021.55 1022.27 1022.86 1023.33 1023.67 1023.88 1024.01 1024.08 1024.13 1024.18 1024.25 1024.33 1024.42 1024.52 1024.59 1024.63 1024.62 1024.56 1024.44 1024.29 1024.09 1023.88 1023.65 1023.40 1023.15 1022.89 1022.61 1022.31 1021.98 1021.64 1021.27
Thickness
5754 5753 5751 5750 5750 5749 5748 5747 5747 5745 5744 5743 5744 5744 5743 5741 5739 5735 5731 5728 5726 5724 5723 5721 5720 5719 5718 5717 5716 5715 5715 5714 5713 5713 5712 5711 5711 5710 5709 5708 5707 5706 5705
5754 5752 5751 5750 5750 5750 5749 5748 5748 5746 5745 5744 5744 5743 5742 5741 5738 5735 5731 5728 5726 5724 5723 5721 5720 5719 5717 5716 5715 5715 5714 5713 5713 5712 5711 5710 5709 5709 5708 5707 5706 5705 5704
5753 5752 5751 5750 5751 5750 5750 5749 5747 5746 5745 5744 5743 5743 5741 5740 5739 5736 5731 5729 5726 5725 5723 5722 5720 5719 5718 5716 5715 5714 5714 5713 5712 5711 5710 5710 5709 5708 5707 5706 5705 5704 5703
5753 5752 5751 5750 5750 5749 5749 5748 5747 5745 5745 5743 5742 5742 5741 5740 5739 5737 5734 5731 5729 5726 5724 5722 5721 5719 5718 5717 5716 5715 5714 5713 5712 5711 5710 5709 5708 5707 5706 5705 5704 5703 5702
5752 5751 5751 5750 5750 5749 5748 5749 5747 5746 5743 5742 5742 5742 5741 5740 5739 5738 5736 5734 5731 5729 5726 5723 5722 5720 5719 5718 5717 5716 5715 5713 5712 5711 5710 5709 5707 5706 5705 5705 5704 5703 5702
5751 5750 5750 5749 5749 5749 5747 5746 5745 5745 5743 5742 5743 5742 5742 5742 5741 5740 5738 5737 5734 5732 5729 5726 5723 5722 5720 5719 5718 5717 5715 5714 5713 5712 5710 5709 5708 5707 5705 5704 5703 5702 5701
5750 5750 5750 5749 5749 5748 5747 5746 5745 5743 5742 5743 5739 5736 5739 5742 5741 5741 5740 5739 5737 5735 5732 5729 5727 5725 5723 5721 5719 5718 5716 5715 5714 5713 5711 5709 5708 5707 5706 5705 5704 5703 5702
5749 5750 5749 5748 5748 5747 5746 5745 5744 5741 5741 5743 5738 5731 5727 5730 5736 5743 5741 5739 5739 5737 5735 5733 5731 5729 5727 5724 5722 5720 5718 5716 5715 5713 5712 5710 5709 5708 5706 5705 5704 5703 5702
5749 5749 5749 5749 5748 5747 5744 5744 5743 5740 5738 5741 5742 5734 5726 5722 5729 5736 5740 5740 5739 5738 5737 5736 5734 5732 5730 5727 5725 5722 5719 5717 5715 5714 5712 5711 5709 5708 5707 5705 5704 5703 5702
5749 5749 5749 5748 5747 5746 5745 5744 5744 5743 5740 5737 5740 5741 5739 5735 5727 5725 5733 5739 5740 5738 5738 5738 5737 5734 5732 5730 5727 5724 5721 5718 5716 5714 5712 5711 5710 5708 5707 5706 5704 5703 5703
5748 5749 5748 5747 5746 5746 5745 5744 5744 5743 5741 5739 5738 5739 5738 5737 5736 5727 5723 5730 5735 5738 5739 5738 5737 5735 5733 5730 5728 5725 5722 5720 5717 5715 5713 5711 5710 5708 5707 5706 5704 5703 5703
5747 5748 5748 5747 5746 5745 5745 5744 5743 5741 5740 5740 5740 5740 5737 5734 5732 5731 5726 5727 5728 5734 5738 5738 5737 5735 5734 5731 5728 5726 5723 5720 5717 5715 5713 5711 5709 5708 5707 5705 5704 5703 5701
5745 5746 5747 5745 5745 5745 5744 5743 5741 5740 5739 5738 5738 5738 5738 5738 5738 5735 5730 5727 5728 5731 5734 5735 5736 5735 5733 5730 5727 5725 5721 5718 5716 5714 5711 5710 5708 5707 5705 5704 5702 5701 5700
5747 5748 5747 5745 5744 5744 5743 5742 5741 5739 5738 5737 5737 5736 5736 5737 5738 5736 5732 5727 5722 5723 5727 5729 5733 5732 5731 5728 5725 5722 5718 5716 5714 5711 5709 5707 5705 5704 5702 5701 5699 5698 5696
5749 5748 5746 5745 5744 5743 5742 5740 5738 5737 5736 5735 5734 5734 5733 5734 5735 5735 5734 5730 5721 5713 5714 5722 5725 5727 5726 5724 5721 5718 5716 5713 5710 5708 5706 5704 5702 5700 5698 5696 5695 5693 5692
5748 5746 5745 5743 5742 5741 5739 5737 5735 5735 5733 5732 5731 5730 5729 5730 5730 5730 5729 5727 5723 5717 5711 5716 5718 5720 5719 5718 5714 5712 5711 5709 5706 5703 5701 5699 5697 5695 5693 5691 5689 5687 5686
5745 5743 5742 5741 5740 5738 5737 5734 5733 5732 5730 5729 5728 5727 5725 5725 5723 5723 5722 5720 5718 5715 5708 5709 5712 5713 5711 5709 5707 5705 5704 5703 5699 5697 5695 5692 5690 5688 5686 5684 5682 5680 5678
5743 5741 5739 5737 5737 5736 5734 5732 5730 5729 5727 5724 5723 5721 5719 5719 5716 5715 5713 5712 5711 5710 5705 5700 5702 5702 5701 5700 5698 5697 5696 5695 5693 5691 5688 5686 5683 5680 5677 5675 5673 5671 5669
5739 5738 5736 5734 5733 5732 5731 5728 5726 5724 5722 5719 5717 5714 5712 5711 5708 5707 5706 5704 5703 5703 5701 5696 5693 5693 5692 5690 5689 5687 5686 5685 5683 5681 5679 5676 5673 5670 5668 5666 5663 5661 5658
5735 5733 5732 5730 5729 5727 5725 5722 5720 5717 5714 5712 5709 5706 5704 5702 5700 5699 5697 5694 5694 5693 5691 5688 5685 5682 5679 5678 5676 5673 5672 5671 5670 5669 5667 5665 5663 5661 5658 5655 5652 5650 5647
5730 5728 5726 5724 5722 5721 5718 5715 5713 5710 5707 5703 5700 5697 5694 5692 5690 5688 5686 5683 5683 5681 5679 5676 5672 5668 5665 5663 5661 5660 5659 5658 5656 5656 5654 5653 5651 5649 5646 5643 5640 5637 5635
5722 5720 5717 5715 5713 5710 5708 5707 5705 5702 5699 5695 5691 5687 5684 5681 5678 5676 5673 5671 5670 5668 5665 5663 5659 5654 5650 5648 5648 5648 5645 5643 5640 5642 5640 5639 5639 5636 5634 5630 5627 5624 5621
5713 5711 5707 5705 5701 5698 5698 5697 5696 5693 5689 5684 5681 5678 5675 5671 5668 5665 5662 5659 5656 5654 5652 5649 5643 5639 5636 5634 5633 5633 5631 5629 5627 5628 5628 5625 5624 5621 5619 5616 5613 5610 5607
5705 5702 5698 5695 5692 5688 5688 5687 5685 5682 5677 5673 5669 5666 5662 5658 5656 5654 5651 5646 5642 5640 5638 5635 5631 5627 5625 5622 5620 5620 5618 5617 5617 5615 5613 5609 5608 5605 5604 5600 5597 5595 5592
5696 5693 5689 5685 5681 5677 5676 5675 5674 5670 5665 5660 5656 5652 5650 5646 5644 5643 5640 5634 5630 5626 5623 5621 5618 5615 5613 5610 5608 5606 5604 5602 5600 5598 5595 5591 5589 5588 5587 5585 5582 5578 5576
5686 5682 5678 5674 5670 5666 5664 5664 5663 5660 5654 5648 5643 5639 5636 5634 5631 5630 5627 5623 5617 5614 5612 5610 5607 5604 5601 5598 5594 5590 5587 5584 5582 5580 5576 5573 5570 5569 5568 5567 5564 5561 5559